Home > Weather > St. Peter Port > Past weeks

Flag for Guernsey Weather for the Past 2 Weeks in St. Peter Port, Guernsey

Now
41 °F

Fog.


Feels Like: 41 °F
Forecast: 41 / 46 °F
Wind: 1 mph from Southwest

Location: Cherbourg / Maupertus

Current Time: Feb 14, 2016 at 2:17:32 AM

Latest Report: Feb 14, 2016 at 1:30 AM


Visibility: 3 mi

Pressure: 29.15 "Hg

Humidity: 93%

Dew point: 39 °F

Location of St. Peter PortLocation

Historic Weather in St. Peter Port — Graph

°F

St. Peter Port Temperature Yesterday

Maximum temperature yesterday: 46 °F (at 12:00 PM)
Minimum temperature yesterday: 39 °F (at 12:00 AM)
Average temperature yesterday: 42 °F

High & Low Weather Summary for the Past Weeks

 TemperatureHumidityPressure
High54 °F (Jan 31, 11:30 AM)100% (Jan 30, 9:00 AM)30.48 "Hg (Jan 30, 9:00 AM)
Low36 °F (Feb 11, 3:30 AM)61% (Feb 3, 6:00 AM)28.80 "Hg (Feb 13, 11:30 AM)
Average45 °F87%29.73 "Hg
* Reported Jan 30 1:00 AM — Feb 14 1:00 AM, St. Peter Port, Weather by CustomWeather, © 2016

Note: Actual official high and low records may vary slightly from our data, if they occured in-between our weather recording intervals... More about our weather records

Advertising

St. Peter Port Weather History for the Previous 24 Hours

 ConditionsComfort  
Time TempWeatherWind HumidityBarometerVisibility
1:00 AM
Sun, Feb 14
41 °FLight rain. Overcast.2 mph93%29.15 "Hg4 mi
12:30 AM41 °FDrizzle. Overcast.3 mph93%29.15 "Hg4 mi
12:00 AM41 °FDrizzle. Mostly cloudy.No wind93%29.15 "HgN/A
11:30 PM
Sat, Feb 13
41 °FMostly cloudy.3 mph93%29.15 "HgN/A
11:00 PM41 °FMostly cloudy.2 mph93%29.15 "HgN/A
10:30 PM41 °FMostly cloudy.2 mph93%29.15 "HgN/A
10:00 PM41 °FMostly cloudy.5 mph93%29.15 "HgN/A
9:30 PM41 °FMostly cloudy.3 mph93%29.15 "HgN/A
9:00 PM41 °FDrizzle. Mostly cloudy.8 mph93%29.15 "HgN/A
8:30 PM41 °FMostly cloudy.8 mph93%29.15 "HgN/A
8:00 PM41 °FLight rain. Mostly cloudy.7 mph93%29.12 "HgN/A
7:30 PM41 °FDrizzle. Mostly cloudy.6 mph93%29.12 "HgN/A
7:00 PM41 °FLight rain. Mostly cloudy.6 mph93%29.12 "HgN/A
6:30 PM41 °FLight rain. Mostly cloudy.7 mph100%29.12 "HgN/A
6:00 PM41 °FLight rain. Low clouds.12 mph100%29.09 "HgN/A
5:30 PM41 °FDrizzle. Low clouds.12 mph100%29.09 "Hg6 mi
5:00 PM43 °FLow clouds.14 mph93%29.06 "HgN/A
4:30 PM43 °FLow clouds.15 mph100%29.03 "HgN/A
4:00 PM45 °FDrizzle. Low clouds.16 mph93%29.00 "Hg4 mi
3:30 PM45 °FMostly cloudy.17 mph100%28.97 "Hg4 mi
3:00 PM46 °FPartly sunny.10 mph93%28.94 "HgN/A
2:30 PM46 °FMostly cloudy.9 mph93%28.91 "HgN/A
2:00 PM46 °FMostly cloudy.9 mph93%28.88 "HgN/A
1:30 PM46 °FFog.10 mph93%28.85 "HgN/A
1:00 PM46 °FFog.10 mph93%28.82 "Hg1 mi
12:30 PM46 °FDrizzle. Fog.5 mph100%28.80 "Hg2 mi
12:00 PM46 °FDrizzle. Fog.7 mph93%28.80 "Hg3 mi
11:30 AM45 °FLight rain. Fog.8 mph100%28.80 "Hg2 mi
11:00 AM45 °FLight rain. Mostly cloudy.9 mph100%28.82 "Hg4 mi
10:30 AM45 °FLight rain. Fog.7 mph93%28.82 "Hg3 mi
10:00 AM45 °FLight rain. Partly sunny.8 mph93%28.82 "Hg5 mi
9:30 AM43 °FMostly cloudy.10 mph100%28.85 "HgN/A
9:00 AM43 °FMostly cloudy.12 mph93%28.85 "HgN/A
8:30 AM41 °FMostly cloudy.9 mph100%28.88 "HgN/A
8:00 AM41 °FLight rain. Mostly cloudy.10 mph100%28.91 "HgN/A
7:30 AM41 °FLight rain. Mostly cloudy.17 mph100%28.91 "Hg5 mi
7:00 AM41 °FLight rain. Mostly cloudy.15 mph100%28.94 "Hg4 mi
6:30 AM41 °FLight rain. Fog.8 mph100%28.97 "Hg3 mi
6:00 AM41 °FLight rain. Low clouds.10 mph100%29.00 "Hg4 mi
5:30 AM41 °FLight rain. Fog.12 mph100%29.03 "Hg3 mi
5:00 AM41 °FLow clouds.10 mph100%29.06 "Hg5 mi
4:30 AM41 °FLight rain. Mostly cloudy.12 mph100%29.09 "Hg4 mi
4:00 AM41 °FLight rain. Fog.9 mph93%29.15 "Hg3 mi
3:30 AM39 °FRain. Passing clouds.10 mph93%29.15 "Hg4 mi
3:00 AM39 °FMostly cloudy.10 mph93%29.18 "HgN/A
2:30 AM39 °FMostly cloudy.8 mph93%29.21 "HgN/A
2:00 AM39 °FOvercast.8 mph93%29.21 "HgN/A
Weather by CustomWeather, © 2016

See weather overviewHow to use our weather pages